Location: Home
(42.5358°N, 72.7383°W)
Time: 21:43:27
(UTC-05:00)

Vanguard 2 - Pass Details

Date: 01 December 2021
Orbit: 553 x 2936 km, 32.9° (Epoch: 20 January)

Event Time Altitude Azimuth Distance (km) Brightness Sun altitude
Rises 14:14:29 0° 236° (SW) 3,095 12.1 16.4°
Reaches altitude 10° 14:16:42 10° 226° (SW) 2,360 12.4 16.1°
Maximum altitude 14:21:39 33° 162° (SSE) 1,655 9.9 15.6°
Drops below altitude 10° 14:29:09 10° 102° (ESE) 3,623 10.7 14.7°
Sets 14:33:25 0° 95° (E) 5,043 11.4 14.2°
